[[{"header":{"parameterUnit":"m.s-1","parameterCategory":1,"la1":30.2991,"la2":30.254,"lo1":-89.0895,"lo2":-89.0444,"dy":0.0017,"dx":0.0017,"nx":28,"ny":28,"refTime":"2025-07-17T03:00:00:Z","depth":0,"parameterNumber":2,"parameterNumberName":"U-component_of_WINDS"},"data":[0,0,0,0,0,0,0,0,0,0,0,0,0,0,0,0,0,0,0,0,0,0,0,0,0,0,0,0,0,0,0,0,0,0,0,0,0,0,0,0,0,0,0,0,0,0,0,0,0,0,0,0,0,0,0,0,0,0,2.1135,2.1135,0,2.1138,2.1138,2.1138,2.1084,2.1083,2.1081,2.108,2.1084,2.1085,2.1087,0,0,0,0,0,0,0,0,0,0,0,0,0,2.1084,2.1085,2.1135,2.1135,2.1135,2.1138,2.1138,2.1138,2.1084,2.1083,2.1081,2.1079,2.1083,2.1085,2.1087,0,0,0,0,0,0,0,0,0,0,0,0,0,2.1098,2.1086,2.1135,2.1109,2.1106,2.1138,2.1138,2.1138,2.1085,2.1082,2.108,2.1078,2.1083,2.1085,2.1087,2.1144,0,0,2.1094,2.1095,0,0,0,0,0,0,0,0,2.1098,2.11,2.1112,2.111,2.1108,2.1108,2.1121,2.114,2.1085,2.1093,2.108,2.1077,2.1094,2.1095,2.11,2.1144,2.1144,2.1094,2.1095,2.1096,2.1097,0,0,0,0,0,0,0,2.1097,2.11,2.1136,2.1113,2.111,2.1097,2.1096,2.1124,2.1105,2.1092,2.1088,2.1089,2.1092,2.1098,2.11,2.1144,2.1094,2.1096,2.1097,2.1098,2.1233,2.1236,0,0,0,0,0,0,2.1099,2.1099,2.1136,2.1136,2.1097,2.1099,2.1099,2.111,2.1105,2.1102,2.1091,2.1087,2.1096,2.1097,2.11,2.1164,2.1096,2.1098,2.1099,2.1231,2.1234,2.1236,0,0,0,0,0,0,2.1098,2.1103,2.1136,2.1117,2.112,2.1103,2.1116,2.1112,2.1117,2.1104,2.1101,2.1101,2.1094,2.1097,2.1133,2.1164,2.1099,2.1101,2.1228,2.1232,2.1235,2.1295,0,0,0,0,0,0,2.1097,2.1103,2.1124,2.1117,2.1121,2.1169,2.1118,2.1113,2.1121,2.1116,2.1112,2.111,2.1092,2.113,2.1135,2.1166,2.1103,2.1225,2.123,2.1234,2.129,2.13,2.1309,0,0,0,0,0,2.1095,2.1142,2.1126,2.113,2.1147,2.1171,2.1173,2.1151,2.1124,2.1145,2.1137,2.111,2.116,2.1134,2.1139,2.1171,2.1223,2.1229,2.1234,2.1286,2.1298,2.1309,0,0,0,0,0,0,2.1153,2.114,2.1122,2.1168,2.1171,2.1161,2.1187,2.1165,2.1176,2.117,2.1144,2.1144,2.1184,2.1181,2.1153,2.1225,2.1187,2.1193,2.1225,2.1236,2.1246,2.1244,2.1105,0,0,0,0,0,2.1171,2.1191,2.1179,2.122,2.1222,2.1205,2.1214,2.1198,2.12,2.1201,2.1195,2.1198,2.1214,2.1226,2.124,2.129,2.1288,2.1315,2.1324,2.1332,2.1337,2.1362,2.1373,2.1253,2.1253,2.1253,0,0,2.1209,2.1204,2.1218,2.1232,2.1232,2.1252,2.1206,2.1231,2.1246,2.1205,2.1237,2.1234,2.1235,2.1278,2.1297,2.1278,2.137,2.1338,2.1345,2.1346,2.1369,2.138,2.139,2.1257,2.1256,2.1256,0,0,2.1287,2.1286,2.1319,2.132,2.1321,2.1309,2.1317,2.1311,2.1307,2.134,2.1309,2.1327,2.1356,2.1358,2.1362,2.1441,2.1416,2.1447,2.1494,2.1519,2.1528,2.1537,2.1563,2.1573,2.1453,2.1453,2.1453,0,2.1333,2.1363,2.134,2.1365,2.1372,2.1335,2.1368,2.1371,2.1377,2.1382,2.136,2.1395,2.1393,2.1436,2.1455,2.1461,2.1468,2.1446,2.1529,2.1537,2.1544,2.1569,2.1579,2.1456,2.1456,2.1456,2.1455,0,2.1419,2.144,2.1467,2.1472,2.1482,2.1512,2.1493,2.1505,2.1488,2.1479,2.1512,2.1509,2.1522,2.1531,2.1515,2.1571,2.1558,2.1534,2.1494,2.156,2.1582,2.1592,2.1461,2.146,2.1459,2.1458,0,0,2.1533,2.1524,2.1534,2.1536,2.1534,2.1549,2.1578,2.1589,2.16,2.1605,2.1627,2.1653,2.1629,2.1635,2.1618,2.164,2.1701,2.1612,2.1612,2.1627,2.176,2.1778,2.1789,2.1685,2.1687,2.1688,2.1759,0,2.1607,2.1653,2.1633,2.1681,2.17,2.1665,2.1689,2.1691,2.1683,2.1697,2.1689,2.1706,2.1675,2.1677,2.1698,2.1689,2.1727,2.1684,2.1704,2.1705,2.1703,2.1801,2.182,2.1887,2.1768,2.177,2.1771,0,2.1699,2.1707,2.1757,2.1751,2.1758,2.178,2.1788,2.1803,2.1804,2.1796,2.1802,2.1781,2.1808,2.177,2.1806,2.1777,2.1785,2.1782,2.1784,2.1783,2.1741,2.1802,2.1909,2.1918,2.1785,2.1784,2.1783,0,2.1775,2.1798,2.1831,2.1833,2.1827,2.1843,2.1841,2.184,2.1848,2.1856,2.186,2.1872,2.1878,2.1887,2.1869,2.1843,2.1907,2.1868,2.19,2.1901,2.1914,2.1913,2.2021,2.1922,2.1922,2.1922,2.1922,0,2.1859,2.189,2.1864,2.1884,2.1918,2.1895,2.1929,2.1924,2.1923,2.1941,2.1913,2.193,2.1907,2.1922,2.1909,2.1939,2.1943,2.1937,2.1933,2.1938,2.1939,2.1941,2.1936,2.1924,2.1924,2.1923,2.1923,0,2.1948,2.1932,2.1965,2.1956,2.1954,2.198,2.1972,2.199,2.198,2.2003,2.2007,2.1992,2.2008,2.1992,2.2008,2.1999,2.2039,2.2029,2.2039,2.2035,2.2068,2.2064,2.218,2.2193,2.2088,2.2089,2.209,0,2.2001,2.2024,2.2018,2.2027,2.2027,2.2044,2.2051,2.203,2.2039,2.2041,2.2058,2.2073,2.2082,2.211,2.21,2.2112,2.2101,2.2141,2.2102,2.2107,2.2099,2.2097,2.2099,2.2148,2.2149,2.215,2.2151,0,2.2097,2.2088,2.21,2.2109,2.2119,2.2125,2.2129,2.2139,2.2117,2.2128,2.2144,2.2152,2.2168,2.2181,2.219,2.2188,2.2166,2.2163,2.2171,2.2176,2.218,2.2176,2.2058,2.216,2.2159,2.2159,2.2158,2.2158,2.2169,2.2187,2.2185,2.2199,2.22,2.2204,2.222,2.2212,2.2224,2.2235,2.2222,2.2241,2.2241,2.225,2.2251,2.2266,2.2249,2.2261,2.2263,2.2266,2.227,2.2179,2.2268,2.2267,2.2267,2.2267,2.2267,0,2.2261,2.2258,2.2271,2.2277,2.2288,2.2266,2.227,2.228,2.2298,2.2299,2.2309,2.2327,2.234,2.2332,2.2343,2.2356,2.2346,2.236,2.2358,2.2357,2.2286,2.2277,2.2368,2.2368,2.2368,2.2368,2.2368,2.2368,2.2311,2.234,2.2331,2.236,2.2357,2.2375,2.2378,2.2382,2.2383,2.2404,2.2415,2.2409,2.2406,2.2417,2.2428,2.2425,2.243,2.2447,2.244,2.2373,2.2363,2.2353,2.2345,2.2449,2.2449,2.251,2.2511,2.2511]},{"header":{"parameterUnit":"m.s-1","parameterCategory":1,"la1":30.2991,"la2":30.254,"lo1":-89.0895,"lo2":-89.0444,"dy":0.0017,"dx":0.0017,"nx":28,"ny":28,"refTime":"2025-07-17T03:00:00:Z","depth":0,"parameterNumber":3,"parameterNumberName":"V-component_of_WINDS"},"data":[0,0,0,0,0,0,0,0,0,0,0,0,0,0,0,0,0,0,0,0,0,0,0,0,0,0,0,0,0,0,0,0,0,0,0,0,0,0,0,0,0,0,0,0,0,0,0,0,0,0,0,0,0,0,0,0,0,0,5.9715,5.9717,0,5.9915,5.9917,5.9919,5.9916,5.9913,5.9911,5.9908,6.0104,6.0112,6.0119,0,0,0,0,0,0,0,0,0,0,0,0,0,5.932,5.9327,5.9714,5.9717,5.972,5.9914,5.9917,5.992,5.9916,5.9913,5.991,5.9907,6.0102,6.0111,6.012,0,0,0,0,0,0,0,0,0,0,0,0,0,5.9502,5.9329,5.9714,5.9742,5.9746,5.9914,5.9917,5.992,5.9917,5.9913,5.9909,5.9905,6.0099,6.011,6.0121,6.0272,0,0,6.0157,6.0162,0,0,0,0,0,0,0,0,5.9492,5.9517,5.9735,5.974,5.9745,5.9887,5.985,6.0038,5.9918,5.9852,5.9908,5.9904,6.0034,6.0051,6.0097,6.0281,6.029,6.0158,6.0165,6.017,6.0173,0,0,0,0,0,0,0,5.9479,5.9508,5.9793,5.9738,5.9744,5.9741,5.9762,5.9885,5.9963,5.9857,5.9858,5.9882,6.0036,6.0086,6.0102,6.0293,6.0157,6.0168,6.0175,6.0179,6.0608,6.0612,0,0,0,0,0,0,5.9462,5.9498,5.9787,5.9799,5.9607,5.9751,5.9775,5.9845,5.9962,5.9976,5.9885,5.9881,6.0068,6.0088,6.0108,6.0292,6.0169,6.018,6.0187,6.0604,6.0609,6.0614,0,0,0,0,0,0,5.9454,5.9488,5.9779,5.9649,5.9686,5.9762,5.9841,5.9851,5.9901,5.9983,5.9995,5.9922,6.0066,6.0092,6.0232,6.0299,6.0186,6.0196,6.0598,6.0605,6.0611,6.066,0,0,0,0,0,0,5.9442,5.9485,5.9546,5.965,5.9693,5.9902,5.9845,5.9858,5.9922,5.9918,6.0021,6.0034,6.0065,6.0214,6.0243,6.0312,6.0205,6.0593,6.0601,6.0609,6.0653,6.0668,6.068,0,0,0,0,0,5.9428,5.955,5.9549,5.9584,5.9771,5.9906,5.993,5.9966,5.9927,5.9987,6.0039,6.003,6.0287,6.0229,6.0261,6.0335,6.0589,6.0599,6.0609,6.0647,6.0665,6.068,0,0,0,0,0,0,5.9449,5.9564,5.9564,5.9724,5.9806,5.9905,5.9982,5.9984,6.0076,6.0068,6.0106,6.0129,6.0268,6.0315,6.0249,6.0485,6.0432,6.0449,6.045,6.0468,6.0481,6.0467,6.0215,0,0,0,0,0,5.9472,5.9576,5.967,5.9801,5.9843,5.9905,5.9966,5.9986,6.0071,6.0105,6.0167,6.0247,6.0345,6.0409,6.0504,6.0659,6.068,6.0725,6.0739,6.075,6.0764,6.0848,6.0869,6.0647,6.0647,6.0647,0,0,5.9521,5.9597,5.966,5.9808,5.9873,5.9976,5.9934,6.0046,6.0122,6.012,6.0257,6.0305,6.0396,6.0544,6.0612,6.0587,6.083,6.0763,6.0771,6.0779,6.086,6.0881,6.09,6.0654,6.0652,6.0651,0,0,5.9663,5.9732,5.9849,5.9916,6.0016,6.0057,6.0085,6.0184,6.0217,6.0355,6.0356,6.0444,6.0614,6.0678,6.0733,6.0898,6.0892,6.0927,6.0999,6.108,6.1097,6.1113,6.117,6.1191,6.0941,6.0941,6.0941,0,5.9711,5.987,5.9908,6.0021,6.0084,6.009,6.0206,6.0268,6.0393,6.0435,6.0407,6.0618,6.068,6.0842,6.0882,6.0927,6.0958,6.0916,6.1092,6.1108,6.1123,6.1178,6.12,6.0945,6.0944,6.0944,6.0943,0,5.9922,6.0032,6.0114,6.0238,6.031,6.0424,6.0476,6.0544,6.0557,6.06,6.0738,6.0812,6.0922,6.0962,6.0975,6.1125,6.1107,6.1085,6.1032,6.1148,6.12,6.1221,6.095,6.0948,6.0947,6.0946,0,0,6.0084,6.0227,6.0256,6.0312,6.0422,6.0506,6.0618,6.0728,6.0785,6.087,6.0964,6.1106,6.1086,6.1148,6.1168,6.1239,6.1363,6.1208,6.1211,6.1234,6.1531,6.1547,6.1571,6.136,6.1364,6.1367,6.1523,0,6.0238,6.0441,6.0478,6.0654,6.0754,6.076,6.0857,6.0933,6.0975,6.1064,6.1108,6.1209,6.1175,6.1213,6.1284,6.1333,6.1423,6.1322,6.1444,6.1448,6.1422,6.1599,6.1616,6.176,6.1544,6.1547,6.155,0,6.0445,6.0538,6.0725,6.0821,6.0864,6.0951,6.1054,6.1139,6.1224,6.1249,6.1319,6.133,6.1443,6.1385,6.1539,6.147,6.1522,6.1553,6.1559,6.1572,6.1506,6.1615,6.1806,6.1828,6.1582,6.158,6.1578,0,6.0543,6.0715,6.0849,6.0896,6.1011,6.1072,6.1122,6.1204,6.1267,6.1355,6.1395,6.1494,6.1548,6.1623,6.1659,6.1614,6.1811,6.1756,6.1833,6.1832,6.1874,6.1871,6.2076,6.1908,6.1907,6.1907,6.1907,0,6.0711,6.0825,6.0895,6.0977,6.1103,6.1142,6.1265,6.1313,6.1385,6.1474,6.1484,6.1566,6.161,6.1698,6.1726,6.1849,6.1873,6.1895,6.1901,6.1894,6.1891,6.1929,6.1919,6.1913,6.1911,6.191,6.1909,0,6.0843,6.0895,6.1041,6.1138,6.1165,6.1254,6.1335,6.1413,6.1454,6.1566,6.1595,6.1658,6.1762,6.1806,6.1933,6.1952,6.2092,6.2091,6.2065,6.2067,6.2141,6.2133,6.2377,6.241,6.222,6.2222,6.2223,0,6.0947,6.1035,6.1142,6.1204,6.1256,6.1355,6.142,6.146,6.1526,6.1629,6.1694,6.1799,6.1885,6.205,6.2105,6.2201,6.2202,6.2281,6.2217,6.2207,6.2203,6.2197,6.2205,6.2292,6.2294,6.2296,6.2297,0,6.1125,6.1146,6.1241,6.1345,6.1422,6.1505,6.1585,6.1634,6.1686,6.1759,6.1867,6.1934,6.2064,6.2167,6.2266,6.2314,6.2314,6.2317,6.234,6.2334,6.2315,6.2325,6.2097,6.2311,6.231,6.2309,6.2308,6.2307,6.1246,6.1324,6.1412,6.1516,6.1581,6.1656,6.1734,6.1785,6.1877,6.1988,6.2005,6.2119,6.2199,6.2333,6.2384,6.2472,6.2452,6.2485,6.2493,6.2501,6.2505,6.2301,6.249,6.249,6.2489,6.2489,6.2489,0,6.1425,6.1481,6.1577,6.169,6.1771,6.1766,6.1854,6.1922,6.2024,6.2099,6.2184,6.2306,6.2406,6.2469,6.2568,6.2626,6.2628,6.265,6.2646,6.2657,6.2518,6.2489,6.2647,6.2647,6.2647,6.2647,6.2647,6.2647,6.1527,6.1659,6.169,6.1852,6.1906,6.2021,6.2072,6.2139,6.22,6.2337,6.2421,6.2462,6.2532,6.2636,6.2725,6.2741,6.2776,6.28,6.2814,6.2683,6.2667,6.2651,6.2624,6.2808,6.2808,6.2946,6.2947,6.2948]}]]